Location: Newark
(34.3481°N, 134.0494°E)
Time: 06:29:12
(UTC+00:00)

A-11 Canister half - All Passes

Search period start: 29 January 2020 00:00
Search period end: 08 February 2020 00:00
Orbit: 1525 x 1684 km, 47.3° (Epoch: 28 January)

Date Brightness Start Highest point End Pass type
(mag) Time Alt. Az. Time Alt. Az. Time Alt. Az.
29 Jan - 04:53:44 10° S 05:00:34 23° SE 05:07:25 10° ENE daylight
29 Jan - 06:55:17 10° SW 07:04:34 85° SE 07:14:02 10° NE daylight
29 Jan - 09:01:34 10° W 09:10:22 44° NNW 09:19:24 10° NE visible
29 Jan - 11:08:43 10° WNW 11:17:28 39° N 11:26:27 10° ENE visible
29 Jan - 13:14:14 10° NW 13:23:52 72° NNE 13:33:48 10° ESE visible
29 Jan - 15:19:46 10° WNW 15:28:34 40° SW 15:37:36 10° SSE night (unlit)
30 Jan - 04:32:27 10° S 04:39:01 22° SE 04:45:34 10° E daylight
30 Jan - 06:33:40 10° SW 06:42:57 82° SE 06:52:23 10° NE daylight
30 Jan - 08:39:49 10° W 08:48:39 45° NNW 08:57:42 10° NE visible
30 Jan - 10:47:02 10° WNW 10:55:43 39° N 11:04:39 10° ENE visible
30 Jan - 12:52:36 10° NW 13:02:11 70° NNE 13:12:05 10° ESE visible
30 Jan - 14:58:03 10° WNW 15:06:57 42° SW 15:16:07 10° SSE night (unlit)
31 Jan - 04:11:13 10° SSE 04:17:27 20° SE 04:23:40 10° E daylight
31 Jan - 06:12:04 10° SW 06:21:20 78° SE 06:30:43 10° NE daylight
31 Jan - 08:18:05 10° W 08:26:57 46° NNW 08:36:01 10° NE daylight
31 Jan - 10:25:21 10° WNW 10:33:59 38° N 10:42:51 10° ENE visible
31 Jan - 12:30:58 10° NW 12:40:30 67° NNE 12:50:21 10° ESE visible
31 Jan - 14:36:21 10° WNW 14:45:20 44° SW 14:54:36 10° SSE visible
01 Feb - 03:50:01 10° SSE 03:55:54 19° SE 04:01:45 10° E daylight
01 Feb - 05:50:29 10° SW 05:59:43 75° SE 06:09:03 10° ENE daylight
01 Feb - 07:56:22 10° W 08:05:14 47° NNW 08:14:19 10° NE daylight
01 Feb - 10:03:39 10° WNW 10:12:14 38° N 10:21:04 10° ENE visible
01 Feb - 12:09:20 10° NW 12:18:49 65° NNE 12:28:36 10° ESE visible
01 Feb - 14:14:40 10° WNW 14:23:44 47° SW 14:33:04 10° SSE visible
02 Feb - 03:28:52 10° SSE 03:34:20 17° SE 03:39:48 10° E daylight
02 Feb - 05:28:53 10° SW 05:38:07 71° SE 05:47:24 10° ENE daylight
02 Feb - 07:34:38 10° W 07:43:33 49° NNW 07:52:39 10° NE daylight
02 Feb - 09:41:57 10° WNW 09:50:30 38° N 09:59:17 10° ENE visible
02 Feb - 11:47:42 10° NW 11:57:08 62° NNE 12:06:52 10° ESE visible
02 Feb - 13:52:58 10° WNW 14:02:06 49° SW 14:11:31 10° SSE visible
03 Feb - 03:07:46 10° SSE 03:12:47 16° ESE 03:17:46 10° E daylight
03 Feb - 05:07:19 10° SW 05:16:30 68° SE 05:25:44 10° ENE daylight
03 Feb - 07:12:54 10° W 07:21:51 50° NNW 07:30:58 10° NE daylight
03 Feb - 09:20:14 10° WNW 09:28:46 37° N 09:37:30 10° ENE visible
03 Feb - 11:26:05 10° NW 11:35:27 60° NNE 11:45:07 10° ESE visible
03 Feb - 13:31:18 10° WNW 13:40:30 52° SW 13:49:58 10° SSE visible
03 Feb - 15:43:13 10° WSW 15:44:08 10° WSW 15:45:03 10° SW night (unlit)
04 Feb - 02:46:45 10° SSE 02:51:14 14° ESE 02:55:41 10° E daylight
04 Feb - 04:45:45 10° SW 04:54:54 64° SE 05:04:04 10° ENE daylight
04 Feb - 06:51:11 10° W 07:00:10 51° NNW 07:09:17 10° NE daylight
04 Feb - 08:58:32 10° WNW 09:07:02 37° N 09:15:43 10° ENE visible
04 Feb - 11:04:27 10° NW 11:13:46 58° NNE 11:23:22 10° ESE visible
04 Feb - 13:09:37 10° WNW 13:18:52 55° SW 13:28:25 10° SSE visible
04 Feb - 15:19:52 10° WSW 15:22:33 11° WSW 15:25:16 10° SW night (unlit)
05 Feb - 02:25:50 10° SSE 02:29:40 13° ESE 02:33:29 10° E daylight
05 Feb - 04:24:11 10° SW 04:33:18 61° SE 04:42:24 10° ENE daylight
05 Feb - 06:29:27 10° W 06:38:28 53° NNW 06:47:38 10° NE daylight
05 Feb - 08:36:49 10° WNW 08:45:18 37° N 08:53:57 10° ENE daylight
05 Feb - 10:42:49 10° NW 10:52:04 56° NNE 11:01:36 10° ESE visible
05 Feb - 12:47:57 10° WNW 12:57:15 58° SW 13:06:51 10° SSE visible
05 Feb - 14:57:21 10° W 15:00:59 13° WSW 15:04:39 10° SW night (unlit)
06 Feb - 02:05:07 10° SE 02:08:07 12° ESE 02:11:06 10° ESE daylight
06 Feb - 04:02:38 10° SSW 04:11:42 58° SE 04:20:44 10° ENE daylight
06 Feb - 06:07:44 10° WSW 06:16:48 55° NNW 06:25:58 10° NE daylight
06 Feb - 08:15:05 10° WNW 08:23:34 37° N 08:32:12 10° ENE daylight
06 Feb - 10:21:11 10° NW 10:30:23 54° NNE 10:39:50 10° E visible
06 Feb - 12:26:18 10° WNW 12:35:38 61° SW 12:45:16 10° SSE visible
06 Feb - 14:35:04 10° W 14:39:24 14° WSW 14:43:48 10° SSW visible
07 Feb - 01:44:48 10° SE 01:46:34 11° ESE 01:48:20 10° ESE daylight
07 Feb - 03:41:06 10° SSW 03:50:06 55° SE 03:59:04 10° ENE daylight
07 Feb - 05:46:01 10° WSW 05:55:07 57° NNW 06:04:18 10° NE daylight
07 Feb - 07:53:22 10° WNW 08:01:50 37° N 08:10:26 10° ENE daylight
07 Feb - 09:59:32 10° NW 10:08:41 53° NNE 10:18:05 10° E visible
07 Feb - 12:04:39 10° WNW 12:14:00 64° SW 12:23:39 10° SE visible
07 Feb - 14:12:55 10° W 14:17:49 15° WSW 14:22:49 10° SSW visible
